Showing default

YUNHAI 2-1D, 43912

Orbit data source: Space-Track

YUNHAI 2-1D, 43912 is a payload satellite owned by CASC (CN) in LEO that was launched on Sat, 29 Dec 2018 UTC via a CHANG ZHENG 2D/YZ-3 launch vehicle from the Jiuquan Satellite Launch Center, China (JSC). Payload-class satellites include a variety of spacecraft equipped with specific instruments for various scientific and technological missions. These include communications satellites like Starlink; space stations such as the ISS; scientific satellites like the Hubble; Earth observation satellites from companies like Planet Labs, Umbra, and HawkEye 360; GPS; miniature CubeSats for education and research; and military/defense satellites.

Loading next visibility...
Identifier
43912, 2018-112D
Orbit
LEO
Country
Flag of CNCN / PRC
Related business
Manufacturer
DFH Shenzhen
Mission
Operational Defense Meteo Radio Occ.
Bus & Motor
YH-2, Unknown motor
Mass
~100 kg wet, ~100 kg dry
Launch date (UTC)
2018-12-29 (7 years ago)
Launch vehicle
CHANG ZHENG 2D/YZ-3
Launch site
Jiuquan Satellite Launch Center, China (JSC)
Object type
Payload
Rocket body
Debris
Shape & HBR
Box + 2 Pan, 0.5 m
Radar Cross Section
0.166 m², Large (>1 m²)

Expand to show TLE details & history
Last TLE update: 6 hours ago

TLE from 6 hours ago
0 YUNHAI 2-1D
1 43912U 18112D   25258.35590880  .00000204  00000-0  14383-3 0  9990
2 43912  50.0121  13.9300 0015645 100.6068 259.6611 14.28853428348288
Epoch: 2025-09-15T08:32Z
TLE epoch observation values (Epoch: 2025-09-15T08:32:30.52Z)
Latitude
0.00005°
Longitude
-108.75887°
Altitude
798.129 km
Speed
7.455 km/s
True Right ascension
00h 55m 43s
True Declination
0° 00' 00"
Sunlit
Object was in full shadow at epoch
Visualization orbit readout
Latitude
Unknown
Longitude
Unknown
Altitude
Unknown
Speed
Unknown
Apparent Right ascension
Unknown
Apparent Declination
Unknown
Sunlit
N/A
Visualization observer readout
Local Sidereal Time
07:38:35
Azimuth
Unknown
Elevation
Unknown
Doppler factor
Unknown
Orbital elements
Apogee altitude
807.528 km
Perigee altitude
785.079 km
Semi-major axis
7,174.441 km
Eccentricity
0.00156
Inclination
50.0121°
RAAN
13.93°
Arg. of periapsis
100.6068°
True anomaly
259.48479°
Mean anomaly
259.6611°
Eccentric anomaly
259.57294°
Mean motion
3.57159 °/min
Orbital period
100.8 mins
BSTAR
0.00014383
Loading maneuver chart data...
Computing Atmospheric mass density...
Loading historical data...
Loading historical data...
Loading historical data...
Loading historical data...
Loading historical data...
Loading historical data...
Loading historical data...

Documentation

Showing up to 5 results
|